Voltar ao catálogo

OPS 9316

IDSCS 6

AtivoMilitarMEO
NORAD 2220·PAYLOAD·🇺🇸 United States

Lançado Jun 16, 1966 de Cape Canaveral Space Force Station

Loading…

Próximas Passagens (próximas 24 horas)

TLE

EnvelhecendoSource: Space-Track

Época: Aug 31, 2026, 21:02 UTC

1 02220U 66053G   26243.87662262 -.00000097  00000-0  00000-0 0  9999
2 02220   8.6133  45.3813 0066901 184.2783   1.6623  1.07156889139868

Acompanhe OPS 9316 em tempo real com AllMySat

Download on the App Store